Location: Unspecified
(0.0000°N, 0.0000°E)
Time: 12:00:43
(UTC+00:00)

Vanguard 2 Rocket - Pass Details

Date: 22 December 2018
Orbit: 556 x 3325 km, 32.9° (Epoch: 25 March)

Event Time Altitude Azimuth Distance (km) Brightness Sun altitude
Rises 20:08:32 0° 224° (SW) 7,212 12.5 -29.5°
Reaches altitude 10° 20:14:42 10° 213° (SSW) 6,283 11.8 -30.9°
Maximum altitude 20:30:58 29° 160° (SSE) 4,510 10.4 -34.4°
Enters shadow 20:39:24 20° 121° (ESE) 4,606 10.2 -36.3°
Drops below altitude 10° 20:43:53 10° 105° (ESE) 5,054 - -37.3°
Sets 20:48:02 0° 94° (E) 5,673 - -38.1°
